Location: Unspecified
(56.5167°N, 0.0000°E)
Time: 18:31:02
(UTC+01:00)

Resurs 1-4 Rocket - Visible Passes

Search period start: 19 January 2018 00:00
Search period end: 29 January 2018 00:00
Orbit: 799 x 814 km, 98.5° (Epoch: 19 January)

Date Brightness Start Highest point End Pass type
(mag) Time Alt. Az. Time Alt. Az. Time Alt. Az.
19 Jan 4.8 04:40:51 10° N 04:40:55 10° N 04:40:55 10° N visible
21 Jan 4.5 05:32:08 10° N 05:32:21 11° N 05:32:21 11° N visible
22 Jan 4.6 05:07:13 10° N 05:07:33 11° N 05:07:33 11° N visible
23 Jan 4.7 04:42:23 10° N 04:42:44 12° N 04:42:44 12° N visible
24 Jan 4.8 04:17:38 10° N 04:17:55 11° N 04:17:55 11° N visible
24 Jan 4.4 05:58:47 10° N 05:58:59 11° NNW 05:58:59 11° NNW visible
25 Jan 4.9 03:52:57 10° NNE 03:53:06 11° NNE 03:53:06 11° NNE visible
25 Jan 4.4 05:33:41 10° N 05:34:11 12° N 05:34:11 12° N visible
26 Jan 4.5 05:08:45 10° N 05:09:23 13° N 05:09:23 13° N visible
27 Jan 4.5 04:43:56 10° N 04:44:34 13° N 04:44:34 13° N visible
28 Jan 4.6 04:19:11 10° N 04:19:46 13° N 04:19:46 13° N visible
28 Jan 4.4 06:00:21 10° NNW 06:00:51 11° NNW 06:00:51 11° NNW visible
